DW3795 Weather Reports


Display with metric or nautical units.
time (UTC)temp
F
wind
direction
speed
MPH
gust
MPH
rain 1hr
in
rain 24hr
in
rain mn
in
humidity
%
barometer
mb
20260504193051 80 245 2.0 10.0 0.00 0.00 0.00 36 1013.4
20260504191540 80 184 6.0 15.0 0.00 0.00 0.00 36 1013.8
20260504190041 80 133 3.0 10.0 0.00 0.00 0.00 36 1014.1
20260504184536 80 15 3.0 10.0 0.00 0.00 0.00 36 1014.2
20260504183035 80 181 5.0 10.0 0.00 0.00 0.00 36 1014.4
20260504181532 79 194 2.0 8.0 0.00 0.00 0.00 36 1014.5
20260504180031 78 202 4.0 9.0 0.00 0.00 0.00 36 1014.4
20260504174529 77 218 5.0 10.0 0.00 0.00 0.00 35 1014.7
20260504173036 78 123 4.0 9.0 0.00 0.00 0.00 36 1014.6
20260504171525 77 213 3.0 7.0 0.00 0.00 0.00 36 1014.8
20260504110116 37 10 0.0 1.0 0.00 0.00 0.00 90 1017.4
20260504081537 38 10 0.0 0.0 0.00 0.00 0.00 88 1017.2
20260504050020 41 10 0.0 0.0 0.00 0.00 0.00 82 1017.4
20260504044533 42 10 0.0 0.0 0.00 0.00 0.00 81 1017.1
20260504043019 42 10 0.0 0.0 0.00 0.00 0.00 81 1017.1
20260504041512 42 10 0.0 0.0 0.00 0.00 0.00 80 1017.0
20260504040010 43 10 0.0 0.0 0.00 0.00 0.00 79 1016.9
20260504034509 43 10 0.0 0.0 0.00 0.00 0.00 79 1017.0
20260504033011 44 10 0.0 0.0 0.00 0.00 0.00 78 1017.1
20260504031509 44 10 0.0 0.0 0.00 0.00 0.00 77 1017.1
20260504030010 45 10 0.0 0.0 0.00 0.00 0.00 76 1017.1
20260504024515 45 10 0.0 0.0 0.00 0.00 0.00 75 1017.0
20260504023007 46 10 0.0 0.0 0.00 0.00 0.00 74 1017.0
20260504021506 47 10 0.0 0.0 0.00 0.00 0.00 73 1016.9
20260504020013 47 179 0.0 0.0 0.00 0.00 0.00 71 1016.8
20260504014505 48 10 0.0 0.0 0.00 0.00 0.00 70 1016.5
20260504013009 49 10 0.0 0.0 0.00 0.00 0.00 68 1016.4
20260504011504 50 10 0.0 1.0 0.00 0.00 0.00 66 1016.4
20260504010008 52 178 0.0 1.0 0.00 0.00 0.00 63 1016.2
20260504004505 53 10 0.0 0.0 0.00 0.00 0.00 61 1016.3
20260504003002 55 178 0.0 0.0 0.00 0.00 0.00 58 1016.2
20260504001502 57 179 0.0 1.0 0.00 0.00 0.00 55 1015.9
20260504000001 59 178 0.0 0.0 0.00 0.00 0.00 52 1015.8
20260503234501 60 178 0.0 1.0 0.00 0.00 0.00 49 1015.8
20260503233100 62 178 0.0 2.0 0.00 0.00 0.00 45 1015.7
20260503231559 63 177 0.0 3.0 0.00 0.00 0.00 41 1015.7
20260503230059 64 178 2.0 5.0 0.00 0.00 0.00 33 1015.6
20260503224558 64 174 1.0 5.0 0.00 0.00 0.00 36 1015.7
20260503223058 65 183 3.0 9.0 0.00 0.00 0.00 32 1015.9
20260503221557 65 240 1.0 9.0 0.00 0.00 0.00 30 1016.1
20260503220110 66 225 1.0 5.0 0.00 0.00 0.00 29 1016.1
20260503214555 66 263 0.0 8.0 0.00 0.00 0.00 29 1016.1
20260503213055 68 5 2.0 7.0 0.00 0.00 0.00 29 1016.1
20260503211607 69 287 2.0 5.0 0.00 0.00 0.00 28 1016.2
20260503210057 69 336 2.0 6.0 0.00 0.00 0.00 30 1016.1
20260503204557 69 175 2.0 11.0 0.00 0.00 0.00 26 1016.5
20260503203052 69 332 1.0 6.0 0.00 0.00 0.00 30 1016.6
20260503201550 69 227 3.0 10.0 0.00 0.00 0.00 31 1017.0
20260503200049 68 5 3.0 15.0 0.00 0.00 0.00 33 1017.2
20260503194549 69 190 2.0 8.0 0.00 0.00 0.00 31 1017.3